Location: Eaton Socon
(52.2167°N, 0.2833°W)
Time: 06:20:07
(UTC+00:00)

Daily predictions for brighter satellites

Satellite Brightness Start Highest point End
(mag) Time Altitude Azimuth Time Altitude Azimuth Time Altitude Azimuth
Tsikada Rocket 4.5 20:45:05 10° SSW 20:51:28 71° WNW 20:57:54 10° N
ATLAS 2AS CENTAUR R/B 4.4 20:48:47 10° WNW 20:54:53 32° N 21:00:53 10° ENE
Cosmos 1656 Rocket 3.7 20:49:51 10° SSW 20:55:25 88° ESE 21:00:55 10° NNE
Cosmos 1378 Rocket 3.5 20:51:20 10° S 20:55:35 72° E 20:59:53 10° NNE
BlueWalker 3 2.0 20:53:22 10° W 20:57:03 74° N 21:00:43 10° E
NOSS 3-3 (A) 4.3 20:51:50 10° WSW 20:57:18 70° NW 21:03:56 10° NE
Okean O Rocket 2.6 20:55:25 10° S 20:59:36 45° W 21:03:51 10° NNW
Cosmos 1025 Rocket 3.6 20:56:08 10° SSE 21:00:11 40° E 21:04:16 10° NNE
CZ-4 R/B 4.5 21:08:48 10° W 21:09:11 10° W 21:09:35 10° W
In-Cosmos 22 Rocket 4.3 21:06:47 10° S 21:12:36 85° E 21:18:22 10° NNE
RESURS DK-1 4.3 21:09:33 10° N 21:12:37 21° NE 21:15:40 10° E
Cosmos 1503 Rocket 4.0 21:14:04 10° SSW 21:19:14 88° ESE 21:24:26 10° NNE
DNEPR-1 R/B 3.9 21:16:00 10° NW 21:20:14 58° NE 21:24:28 10° ESE
USA 215 3.8 21:16:29 10° E 21:22:54 61° N 21:29:20 10° WNW
Cosmos 2369 Rocket 2.2 21:18:48 10° SSW 21:24:30 86° ESE 21:30:14 10° NNE
ASTEX 1 3.3 21:21:18 10° N 21:26:12 78° E 21:31:03 10° S
Cosmos 1354 Rocket 4.0 21:23:32 10° SSW 21:28:45 78° ESE 21:33:59 10° NNE
SAR-Lupe-2 3.9 21:29:48 10° S 21:33:22 64° WSW 21:36:57 10° NNW
Cosmos 2297 Rocket 3.6 21:28:26 10° NNW 21:33:28 31° NE 21:38:27 10° ESE
ISS -3.8 21:31:00 10° W 21:34:19 70° SSW 21:37:40 10° ESE
COBE Rocket 4.1 21:31:38 10° NNE 21:36:10 48° E 21:40:35 10° S
Okean 2 Rocket 3.9 21:33:38 10° NNW 21:37:51 48° W 21:42:03 10° SSW
Ariane Rocket 3.2 21:33:13 10° S 21:38:16 73° WSW 21:43:21 10° NNW
Cosmos 2098 Rocket 3.7 21:35:34 10° NNE 21:38:21 27° ENE 21:40:47 14° SE
Cosmos 2263 4.2 21:40:11 10° SSW 21:45:52 89° WNW 21:51:32 10° NNE
CZ-4C R/B 2.0 21:41:56 10° SSW 21:46:11 51° SE 21:51:34 10° NE
Cosmos 923 Rocket 4.5 21:44:07 10° NNW 21:49:13 52° ENE 21:53:32 14° SE
Cosmos 1515 2.6 21:47:06 10° N 21:49:44 83° E 21:51:23 19° SSE
Lacrosse 5 rocket 2.5 21:46:19 10° WNW 21:50:02 40° N 21:53:47 10° ENE
Cosmos 44 3.0 21:46:58 10° SSW 21:51:12 59° SE 21:55:35 10° NE
Okean 1 Rocket 4.0 21:47:38 10° NNW 21:51:49 44° W 21:55:56 10° SSW
Helios 1A 4.4 21:48:26 10° N 21:52:05 37° WNW 21:55:43 10° SW
Cosmos 1975 Rocket 3.4 21:53:28 15° SSE 21:56:50 48° E 22:00:59 10° NNE
Cosmos 2221 Rocket 4.4 21:54:55 10° SSW 21:59:20 53° WNW 22:03:47 10° N
Nadezhda 4 Rocket 4.2 21:53:10 10° SSW 21:59:30 77° WNW 22:05:52 10° N
Cosmos 2228 3.3 21:56:05 10° N 22:00:12 51° ENE 22:03:10 18° SSE
Cosmos 1455 Rocket 3.2 21:59:09 10° NNW 22:03:27 69° W 22:07:03 14° S
Terra 4.2 22:01:11 10° SW 22:04:23 18° W 22:07:37 10° NW
Cosmos 2227 Rocket 3.8 22:01:15 10° NNW 22:06:08 28° NE 22:11:00 10° E
Cosmos 2285 Rocket 4.0 22:01:58 10° SSW 22:08:20 79° ESE 22:14:48 10° NNE
Gbstr 26 Del rocket 3.6 22:03:21 10° W 22:08:23 74° SSW 22:14:39 10° ESE
Cosmos 1867 3.9 22:03:43 10° SSW 22:08:51 44° ESE 22:14:02 10° NE
Cosmos 2195 Rocket 4.5 22:03:46 10° S 22:09:57 88° E 22:16:16 10° N
BREEZE M DEB (TANK) 3.3 22:06:49 10° SW 22:09:59 23° SSE 22:10:09 23° SSE
BREEZE-M DEB (TANK) 3.4 22:05:52 10° WSW 22:15:43 63° S 22:18:59 10° E
Cosmos 2026 Rocket 3.9 22:12:16 11° S 22:18:11 86° E 22:24:17 10° N
Iridium 82 4.3 22:15:24 10° N 22:18:47 86° W 22:20:46 22° S
Cosmos 1898 Rocket 3.5 22:16:18 12° S 22:21:01 63° ESE 22:26:13 10° NNE
ATLAS 5 CENTAUR R/B 4.2 22:18:59 10° NW 22:21:26 16° N 22:24:09 10° NE
Cosmos 1812 4.3 22:21:11 10° NW 22:23:41 22° W 22:26:11 10° SW
USA 81 4.0 22:25:23 15° S 22:29:44 89° E 22:35:03 10° N
Cosmos 1553 Rocket 4.0 22:24:58 10° N 22:31:16 78° E 22:35:55 20° SSE
ARIANE 5 R/B 2.9 22:30:39 21° SE 22:33:29 58° ENE 22:37:50 10° N
BlueWalker 3 1.8 22:31:08 10° WNW 22:34:46 65° SSW 22:36:56 22° SE
Cosmos 1900 4.4 22:32:22 10° SW 22:37:24 90° WSW 22:42:34 10° NE
Cosmos 1092 Rocket 4.2 22:35:06 11° SSW 22:41:14 75° WNW 22:47:34 10° N
CZ-4C R/B 3.4 22:41:21 10° NNE 22:44:55 53° E 22:46:38 28° SSE
DELTA 2 DEB (DPAF) 3.7 22:41:03 10° NNE 22:44:59 87° ESE 22:47:30 21° SSW
ATLAS 2AS CENTAUR R/B 3.7 22:40:49 10° NW 22:47:22 45° NNE 22:53:48 10° E
SOZ 3.9 22:46:58 10° W 22:49:18 86° S 22:50:38 20° E
Cosmos 1536 Rocket 4.0 22:48:20 25° SSE 22:50:31 47° E 22:54:47 10° NNE
RESURS DK-1 2.3 22:46:33 10° NW 22:50:32 71° WSW 22:52:30 28° SSE
Cosmos 1656 3.8 22:47:10 20° S 22:50:58 54° ESE 22:56:21 10° NE
Aureole 1 Rocket 4.5 22:45:21 10° SSW 22:52:05 75° WNW 22:59:41 10° NNE
S3M 4.3 22:45:54 10° N 22:52:10 59° ENE 22:56:23 21° SSE
Cosmos 2263 Rocket 3.7 22:48:42 10° NNW 22:53:45 32° NE 22:58:43 10° ESE
Cosmos 1544 Rocket 3.7 22:49:36 10° NNW 22:53:57 66° W 22:56:31 24° S
Cosmos 1606 Rocket 4.1 22:52:14 10° N 22:56:28 47° ENE 22:58:50 23° SE
Cosmos 372 Rocket 4.3 22:55:21 10° SW 23:00:24 63° WNW 23:05:28 10° NNE
Meteor 2-20 Rocket 4.4 22:55:09 10° NNW 23:01:15 81° W 23:05:05 23° S
Cosmos 1400 Rocket 2.8 22:57:27 10° NNW 23:01:16 67° W 23:03:02 29° S
Cosmos 2058 3.2 23:01:15 29° SSE 23:02:52 48° E 23:06:41 10° NNE
USA 215 3.3 22:59:12 10° ESE 23:05:45 89° NE 23:12:21 10° WNW
Cosmos 1782 2.6 23:04:14 10° N 23:07:55 72° ENE 23:09:26 33° SSE
Cosmos 2369 Rocket 4.4 23:04:29 10° W 23:09:14 26° NW 23:13:58 10° NNE
Cosmos 2112 Rocket 4.2 23:04:06 10° NNW 23:09:20 65° WSW 23:12:22 25° S
ISS -2.5 23:07:53 10° W 23:10:32 26° SW 23:10:32 26° SW
Cosmos 2098 Rocket 4.3 23:13:47 10° NW 23:16:22 22° W 23:18:12 15° SW
Cosmos 2297 Rocket 2.3 23:12:20 10° NW 23:17:57 67° WSW 23:21:13 26° SSE
Cosmos 2219 4.4 23:13:40 10° NNW 23:18:58 37° NE 23:24:11 10° ESE
Cosmos 1937 Rocket 3.8 23:14:20 12° SW 23:19:01 65° WNW 23:24:09 10° NNE
Cosmos 1862 3.9 23:18:17 29° SE 23:19:24 38° E 23:22:49 10° NNE
Cosmos 1726 Rocket 4.0 23:15:10 10° N 23:19:44 60° ENE 23:22:11 27° SSE
Cosmos 1680 Rocket 4.1 23:14:50 10° NW 23:19:52 46° WSW 23:22:44 24° SSW
Cosmos 2058 Rocket 4.3 23:17:19 10° N 23:21:25 34° ENE 23:23:59 19° SE
PSLV R/B 4.2 23:17:53 10° NNE 23:22:25 47° E 23:24:32 28° SSE
ALOS 2 2.6 23:22:00 30° S 23:24:10 83° WSW 23:28:36 10° NNW
Lacrosse 5 rocket 1.3 23:23:51 10° WNW 23:27:48 75° NNE 23:31:05 14° ESE
Cosmos 1980 Rocket 3.7 23:28:23 18° SE 23:30:31 22° ESE 23:34:41 10° NE
Cosmos 1356 Rocket 3.7 23:29:27 10° N 23:33:25 56° ENE 23:35:17 29° SE
CZ-4C R/B 3.3 23:29:58 10° W 23:34:34 44° NNW 23:40:29 10° NE
MetOp-A 4.2 23:33:09 25° SW 23:34:40 36° W 23:38:12 10° NNW
Cosmos 1697 Rocket 3.1 23:32:03 26° SSE 23:34:48 46° ESE 23:40:12 10° NE
Cosmos 2360 4.2 23:33:06 21° SSW 23:37:01 80° ESE 23:42:44 10° NNE
Cosmos 1892 Rocket 3.9 23:39:40 30° SSE 23:41:25 51° E 23:45:37 10° NNE
CZ-2C R/B 4.1 23:36:54 10° ESE 23:41:46 32° ENE 23:46:39 10° N
Cosmos 1441 Rocket 3.7 23:44:49 32° SE 23:45:40 38° E 23:48:54 10° NNE
GEOS 3 Rocket 3.9 23:43:50 10° NE 23:48:59 52° SE 23:51:46 26° SSW
Meteor 2-3 Rocket 4.1 23:46:44 25° SSE 23:49:54 54° E 23:55:30 10° NNE
Cosmos 2227 Rocket 2.2 23:45:05 10° NNW 23:50:47 78° WSW 23:54:06 26° SSE
Cosmos 1867 4.5 23:47:09 10° WSW 23:52:27 49° NW 23:57:47 10° NE
